Hourly Weather Kyzan

Today, 21 October, Wednesday

Time Temperature Precipitation Wind Pressure Humidity
00:00 +9°C° 0 mm 3 mps 767 mmHg 73%
01:00 +8°C° 0 mm 3 mps 767 mmHg 73%
02:00 +8°C° 0 mm 3 mps 767 mmHg 72%
03:00 +9°C° 0 mm 3 mps 767 mmHg 71%
04:00 +9°C° 0 mm 3 mps 767 mmHg 70%
05:00 +9°C° 0 mm 3 mps 767 mmHg 71%
06:00 +9°C° 0 mm 3 mps 767 mmHg 72%
07:00 +9°C° 0 mm 3 mps 767 mmHg 72%
08:00 +10°C° 0 mm 4 mps 767 mmHg 67%
09:00 +12°C° 0 mm 4 mps 768 mmHg 62%
10:00 +13°C° 0 mm 5 mps 768 mmHg 57%
11:00 +14°C° 0 mm 6 mps 768 mmHg 52%
12:00 +15°C° 0 mm 7 mps 768 mmHg 47%
13:00 +15°C° 0 mm 8 mps 768 mmHg 41%
14:00 +15°C° 0 mm 9 mps 768 mmHg 41%
15:00 +13°C° 0 mm 9 mps 768 mmHg 41%
16:00 +13°C° 0 mm 9 mps 768 mmHg 41%
17:00 +11°C° 0 mm 7 mps 768 mmHg 44%
18:00 +9°C° 0 mm 6 mps 768 mmHg 47%
19:00 +8°C° 0 mm 4 mps 768 mmHg 50%
20:00 +7°C° 0 mm 4 mps 769 mmHg 53%
21:00 +7°C° 0 mm 4 mps 769 mmHg 55%
22:00 +7°C° 0 mm 4 mps 769 mmHg 57%
23:00 +7°C° 0 mm 4 mps 769 mmHg 59%

Tomorrow, 22 October, Thursday

Time Temperature Precipitation Wind Pressure Humidity
00:00 +7°C° 0 mm 4 mps 769 mmHg 60%
01:00 +7°C° 0 mm 4 mps 769 mmHg 62%
02:00 +8°C° 0 mm 3 mps 769 mmHg 61%
03:00 +8°C° 0 mm 3 mps 769 mmHg 61%
04:00 +8°C° 0 mm 3 mps 768 mmHg 60%
05:00 +8°C° 0 mm 3 mps 768 mmHg 60%
06:00 +8°C° 0 mm 3 mps 768 mmHg 59%
07:00 +9°C° 0 mm 2 mps 768 mmHg 59%
08:00 +10°C° 0 mm 3 mps 768 mmHg 54%
09:00 +11°C° 0 mm 3 mps 769 mmHg 50%
10:00 +12°C° 0 mm 3 mps 769 mmHg 46%
11:00 +13°C° 0 mm 4 mps 769 mmHg 42%
12:00 +13°C° 0 mm 5 mps 768 mmHg 38%
13:00 +14°C° 0 mm 5 mps 768 mmHg 34%
14:00 +14°C° 0 mm 5 mps 768 mmHg 35%
15:00 +13°C° 0 mm 5 mps 768 mmHg 35%
16:00 +13°C° 0 mm 6 mps 767 mmHg 36%
17:00 +10°C° 0 mm 5 mps 768 mmHg 42%
18:00 +10°C° 0 mm 4 mps 768 mmHg 49%
19:00 +8°C° 0 mm 3 mps 768 mmHg 55%
20:00 +7°C° 0 mm 3 mps 768 mmHg 61%
21:00 +6°C° 0 mm 2 mps 768 mmHg 67%
22:00 +6°C° 0 mm 1 mps 769 mmHg 72%
23:00 +5°C° 0 mm 1 mps 769 mmHg 76%

Day after tomorrow, 23 October, Friday

Time Temperature Precipitation Wind Pressure Humidity
00:00 +4°C° 0 mm 0 mps 768 mmHg 79%
01:00 +3°C° 0 mm 0 mps 768 mmHg 82%
02:00 +3°C° 0 mm 0 mps 768 mmHg 81%
03:00 +4°C° 0 mm 1 mps 768 mmHg 80%
04:00 +5°C° 0 mm 1 mps 768 mmHg 79%
05:00 +5°C° 0 mm 1 mps 768 mmHg 76%
06:00 +4°C° 0 mm 2 mps 768 mmHg 74%
07:00 +5°C° 0 mm 2 mps 768 mmHg 72%
08:00 +6°C° 0 mm 2 mps 769 mmHg 64%
09:00 +8°C° 0 mm 2 mps 769 mmHg 55%
10:00 +10°C° 0 mm 2 mps 769 mmHg 47%
11:00 +12°C° 0 mm 2 mps 769 mmHg 43%
12:00 +13°C° 0 mm 1 mps 769 mmHg 39%
13:00 +14°C° 0 mm 1 mps 768 mmHg 35%
14:00 +15°C° 0 mm 1 mps 768 mmHg 34%
15:00 +15°C° 0 mm 1 mps 768 mmHg 32%
16:00 +15°C° 0 mm 1 mps 767 mmHg 31%
17:00 +13°C° 0 mm 1 mps 767 mmHg 36%
18:00 +11°C° 0 mm 1 mps 767 mmHg 41%
19:00 +9°C° 0 mm 1 mps 767 mmHg 46%
20:00 +9°C° 0 mm 2 mps 767 mmHg 45%
21:00 +9°C° 0 mm 3 mps 768 mmHg 43%
22:00 +9°C° 0 mm 3 mps 768 mmHg 42%
23:00 +9°C° 0 mm 3 mps 767 mmHg 42%

24 October, Saturday

Time Temperature Precipitation Wind Pressure Humidity
00:00 +10°C° 0 mm 4 mps 767 mmHg 42%
01:00 +10°C° 0 mm 4 mps 767 mmHg 42%
02:00 +9°C° 0 mm 3 mps 767 mmHg 46%
03:00 +9°C° 0 mm 3 mps 766 mmHg 50%
04:00 +9°C° 0 mm 3 mps 766 mmHg 53%
05:00 +9°C° 0 mm 3 mps 766 mmHg 56%
06:00 +9°C° 0 mm 3 mps 766 mmHg 58%
07:00 +8°C° 0 mm 3 mps 766 mmHg 61%
08:00 +10°C° 0 mm 4 mps 766 mmHg 58%
09:00 +13°C° 0 mm 4 mps 766 mmHg 55%
10:00 +15°C° 0 mm 4 mps 766 mmHg 52%
11:00 +17°C° 0 mm 4 mps 766 mmHg 46%
12:00 +19°C° 0 mm 4 mps 765 mmHg 40%
13:00 +21°C° 0 mm 4 mps 765 mmHg 35%
14:00 +21°C° 0 mm 4 mps 765 mmHg 34%
15:00 +22°C° 0 mm 3 mps 765 mmHg 32%
16:00 +22°C° 0 mm 3 mps 765 mmHg 31%
17:00 +20°C° 0 mm 3 mps 765 mmHg 36%
18:00 +19°C° 0 mm 3 mps 765 mmHg 40%
19:00 +17°C° 0 mm 2 mps 765 mmHg 45%
20:00 +16°C° 0 mm 3 mps 765 mmHg 48%
21:00 +16°C° 0 mm 3 mps 765 mmHg 51%
22:00 +14°C° 0 mm 4 mps 765 mmHg 55%
23:00 +14°C° 0 mm 3 mps 765 mmHg 57%

25 October, Sunday

Time Temperature Precipitation Wind Pressure Humidity
00:00 +13°C° 0 mm 3 mps 765 mmHg 59%
01:00 +12°C° 0 mm 3 mps 764 mmHg 61%
02:00 +12°C° 0 mm 3 mps 764 mmHg 62%
03:00 +12°C° 0 mm 4 mps 764 mmHg 64%
04:00 +12°C° 0 mm 4 mps 764 mmHg 65%
05:00 +12°C° 0 mm 4 mps 764 mmHg 66%
06:00 +11°C° 0 mm 4 mps 764 mmHg 66%
07:00 +10°C° 0 mm 5 mps 764 mmHg 66%
08:00 +14°C° 0 mm 5 mps 764 mmHg 56%
09:00 +16°C° 0 mm 6 mps 764 mmHg 45%
10:00 +18°C° 0 mm 7 mps 764 mmHg 35%
11:00 +21°C° 0 mm 7 mps 763 mmHg 30%
12:00 +23°C° 0 mm 7 mps 763 mmHg 25%
13:00 +26°C° 0 mm 7 mps 763 mmHg 20%
14:00 +26°C° 0 mm 7 mps 762 mmHg 19%
15:00 +26°C° 0 mm 7 mps 762 mmHg 19%
16:00 +26°C° 0 mm 6 mps 762 mmHg 19%
17:00 +23°C° 0 mm 5 mps 762 mmHg 22%
18:00 +21°C° 0 mm 4 mps 762 mmHg 25%
19:00 +18°C° 0 mm 3 mps 762 mmHg 28%
20:00 +18°C° 0 mm 4 mps 762 mmHg 29%
21:00 +17°C° 0 mm 4 mps 762 mmHg 30%
22:00 +15°C° 0 mm 4 mps 762 mmHg 31%
23:00 +15°C° 0 mm 5 mps 762 mmHg 31%

26 October, Monday

Time Temperature Precipitation Wind Pressure Humidity
00:00 +15°C° 0 mm 5 mps 761 mmHg 32%
01:00 +14°C° 0 mm 6 mps 761 mmHg 32%
02:00 +14°C° 0 mm 6 mps 761 mmHg 33%
03:00 +13°C° 0 mm 6 mps 761 mmHg 34%
04:00 +13°C° 0 mm 6 mps 761 mmHg 34%
05:00 +13°C° 0 mm 6 mps 761 mmHg 35%
06:00 +13°C° 0 mm 6 mps 761 mmHg 35%
07:00 +11°C° 0 mm 6 mps 760 mmHg 35%
08:00 +14°C° 0 mm 6 mps 760 mmHg 32%
09:00 +15°C° 0 mm 7 mps 760 mmHg 29%
10:00 +17°C° 0 mm 7 mps 760 mmHg 25%
11:00 +18°C° 0 mm 7 mps 760 mmHg 23%
12:00 +21°C° 0 mm 7 mps 759 mmHg 20%
13:00 +23°C° 0 mm 7 mps 759 mmHg 18%
14:00 +23°C° 0 mm 6 mps 759 mmHg 17%
15:00 +23°C° 0 mm 5 mps 759 mmHg 17%
16:00 +25°C° 0 mm 5 mps 758 mmHg 16%
17:00 +22°C° 0 mm 4 mps 758 mmHg 19%
18:00 +19°C° 0 mm 4 mps 758 mmHg 21%
19:00 +17°C° 0 mm 3 mps 758 mmHg 24%
20:00 +16°C° 0 mm 3 mps 758 mmHg 26%
21:00 +15°C° 0 mm 2 mps 758 mmHg 29%
22:00 +15°C° 0 mm 2 mps 758 mmHg 31%
23:00 +14°C° 0 mm 2 mps 758 mmHg 33%

27 October, Tuesday

Time Temperature Precipitation Wind Pressure Humidity
00:00 +13°C° 0 mm 2 mps 758 mmHg 34%
01:00 +12°C° 0 mm 2 mps 758 mmHg 36%
02:00 +13°C° 0 mm 2 mps 758 mmHg 40%
03:00 +12°C° 0 mm 3 mps 758 mmHg 44%
04:00 +13°C° 0 mm 4 mps 758 mmHg 48%
05:00 +13°C° 0 mm 4 mps 758 mmHg 57%
06:00 +12°C° 0 mm 5 mps 759 mmHg 65%
07:00 +12°C° 0 mm 5 mps 759 mmHg 73%
08:00 +14°C° 0 mm 5 mps 759 mmHg 63%
09:00 +16°C° 0 mm 5 mps 759 mmHg 53%
10:00 +17°C° 0 mm 5 mps 760 mmHg 42%
11:00 +17°C° 0 mm 5 mps 760 mmHg 45%
12:00 +16°C° 0 mm 5 mps 760 mmHg 47%
13:00 +15°C° 0 mm 5 mps 760 mmHg 50%
14:00 +15°C° 0 mm 5 mps 760 mmHg 48%
15:00 +15°C° 0 mm 5 mps 760 mmHg 46%
16:00 +16°C° 0 mm 6 mps 760 mmHg 44%
17:00 +15°C° 0 mm 5 mps 761 mmHg 51%
18:00 +14°C° 0 mm 5 mps 761 mmHg 57%
19:00 +12°C° 0 mm 4 mps 761 mmHg 63%
20:00 +11°C° 0 mm 4 mps 762 mmHg 68%
21:00 +10°C° 0 mm 4 mps 762 mmHg 73%
22:00 +8°C° 0 mm 4 mps 762 mmHg 77%
23:00 +8°C° 0 mm 4 mps 762 mmHg 79%
Show more

We Need Your Consent

Meteoprog and our Service Providers may store and access personal data such as cookies, device identifiers or other similar technologies on your device and process such data to personalise content and ads, as well as provide social media features and to analyse the traffic.

  • Store and/or access information on your device

    Cookies, device identifiers or other information can be stored or accessed on your device for the purposes indicated above.

  • Personalised ads and content, ad and content measurement, audience insights, and products development

    Ads and content can be personalised based on a profile. More data can be added to better personalise ads and content. Ad and content performance can be measured. Insights about the audience who saw the ads and content can be derived. Such data can be used to develop or improve user’s experience, systems and software.

By clicking ‘I Agree’ you will allow the use of indicated cookies, device identifiers, web beacons or other similar technologies. Your settings can be changed in the browser on your device.

For certain purposes, legitimate interests may be relied on, rather than consent. You can read more about this in our Privacy and Cookie Policy.